Location: Prague
(50.0830°N, 14.4670°E)
Time: 18:47:33
(UTC+01:00)

O/OREOS (USA 219) - Pass Details

Date: 09 December 2021
Orbit: 621 x 646 km, 72.0° (Epoch: 22 May)

Event Time Altitude Azimuth Distance (km) Brightness Sun altitude
Rises 18:17:55 0° 339° (NNW) 2,955 ? -21.0°
Reaches altitude 10° 18:20:34 10° 353° (N) 2,045 ? -21.4°
Enters shadow 18:21:51 16° 5° (N) 1,683 ? -21.6°
